| time (UTC) | temp C | wind direction | speed KPH | gust KPH | rain 1hr cm | rain 24hr cm | rain mn cm | humidity % | barometer mb |
| 20260508211521 | 27 | 179 | 1.6 | 8.0 | 0.00 | 0.00 | 0.00 | 54 | 1007.0 |
| 20260508210019 | 27 | 168 | 3.2 | 8.0 | 0.00 | 0.00 | 0.00 | 56 | 1007.3 |
| 20260508204518 | 27 | 265 | 3.2 | 16.1 | 0.00 | 0.00 | 0.00 | 54 | 1007.5 |
| 20260508203018 | 27 | 169 | 3.2 | 9.7 | 0.00 | 0.00 | 0.00 | 55 | 1007.6 |
| 20260508201513 | 27 | 248 | 3.2 | 8.0 | 0.00 | 0.00 | 0.00 | 54 | 1007.9 |
| 20260508200019 | 27 | 171 | 4.8 | 12.9 | 0.00 | 0.00 | 0.00 | 54 | 1008.0 |
| 20260508194509 | 27 | 107 | 4.8 | 11.3 | 0.00 | 0.00 | 0.00 | 55 | 1008.1 |
| 20260508193006 | 27 | 171 | 4.8 | 11.3 | 0.00 | 0.00 | 0.00 | 55 | 1008.4 |
| 20260508191504 | 27 | 218 | 3.2 | 19.3 | 0.00 | 0.00 | 0.00 | 54 | 1008.6 |
| 20260508190005 | 27 | 190 | 4.8 | 12.9 | 0.00 | 0.00 | 0.00 | 54 | 1009.0 |
| 20260508184604 | 27 | 159 | 4.8 | 11.3 | 0.00 | 0.00 | 0.00 | 54 | 1009.1 |
| 20260508183114 | 26 | 165 | 4.8 | 19.3 | 0.00 | 0.00 | 0.00 | 55 | 1009.4 |
| 20260508181555 | 26 | 182 | 4.8 | 19.3 | 0.00 | 0.00 | 0.00 | 54 | 1009.6 |
| 20260508180153 | 25 | 170 | 6.4 | 11.3 | 0.00 | 0.00 | 0.00 | 53 | 1009.9 |
| 20260508174605 | 25 | 167 | 6.4 | 12.9 | 0.00 | 0.00 | 0.00 | 52 | 1010.2 |
| 20260508173048 | 25 | 209 | 3.2 | 12.9 | 0.00 | 0.00 | 0.00 | 52 | 1010.5 |
| 20260508171546 | 25 | 182 | 4.8 | 14.5 | 0.00 | 0.00 | 0.00 | 54 | 1010.7 |
| 20260508170046 | 25 | 170 | 4.8 | 16.1 | 0.00 | 0.00 | 0.00 | 55 | 1011.0 |
| 20260508164549 | 25 | 175 | 4.8 | 14.5 | 0.00 | 0.00 | 0.00 | 57 | 1011.4 |
| 20260508163040 | 24 | 360 | 4.8 | 16.1 | 0.00 | 0.00 | 0.00 | 57 | 1011.5 |
| 20260508161538 | 23 | 175 | 4.8 | 16.1 | 0.00 | 0.00 | 0.00 | 56 | 1011.7 |
| 20260508160036 | 23 | 192 | 4.8 | 12.9 | 0.00 | 0.00 | 0.00 | 59 | 1012.3 |
| 20260508154530 | 22 | 360 | 8.0 | 17.7 | 0.00 | 0.00 | 0.00 | 57 | 1012.4 |
| 20260508153032 | 22 | 174 | 4.8 | 16.1 | 0.00 | 0.00 | 0.00 | 57 | 1012.6 |
| 20260508151522 | 22 | 175 | 4.8 | 12.9 | 0.00 | 0.00 | 0.00 | 62 | 1012.7 |
| 20260508150017 | 21 | 170 | 3.2 | 12.9 | 0.00 | 0.00 | 0.00 | 63 | 1012.8 |
| 20260508144525 | 21 | 176 | 4.8 | 14.5 | 0.00 | 0.00 | 0.00 | 63 | 1013.1 |
| 20260508143013 | 20 | 170 | 4.8 | 16.1 | 0.00 | 0.00 | 0.00 | 65 | 1013.2 |
| 20260508141512 | 20 | 186 | 3.2 | 12.9 | 0.00 | 0.00 | 0.00 | 65 | 1013.4 |
| 20260508140016 | 19 | 178 | 3.2 | 8.0 | 0.00 | 0.00 | 0.00 | 67 | 1013.5 |
| 20260508134505 | 18 | 189 | 3.2 | 11.3 | 0.00 | 0.00 | 0.00 | 70 | 1013.5 |
| 20260508133057 | 17 | 360 | 4.8 | 9.7 | 0.00 | 0.00 | 0.00 | 72 | 1013.6 |
| 20260508131605 | 16 | 360 | 1.6 | 6.4 | 0.00 | 0.00 | 0.00 | 76 | 1013.6 |
| 20260508130049 | 14 | 360 | 0.0 | 3.2 | 0.00 | 0.00 | 0.00 | 82 | 1013.8 |
| 20260508124544 | 12 | 360 | 0.0 | 1.6 | 0.00 | 0.00 | 0.00 | 86 | 1013.6 |
| 20260508123042 | 12 | 178 | 0.0 | 1.6 | 0.00 | 0.00 | 0.00 | 86 | 1013.4 |
| 20260508121538 | 12 | 178 | 0.0 | 1.6 | 0.00 | 0.00 | 0.00 | 86 | 1013.4 |
| 20260508120043 | 11 | 178 | 0.0 | 1.6 | 0.00 | 0.00 | 0.00 | 86 | 1013.3 |
| 20260508114545 | 11 | 178 | 0.0 | 1.6 | 0.00 | 0.00 | 0.00 | 85 | 1013.2 |
| 20260508113031 | 11 | 173 | 0.0 | 1.6 | 0.00 | 0.00 | 0.00 | 85 | 1013.2 |
| 20260508111530 | 11 | 173 | 0.0 | 1.6 | 0.00 | 0.00 | 0.00 | 84 | 1013.1 |
| 20260508110032 | 12 | 173 | 0.0 | 1.6 | 0.00 | 0.00 | 0.00 | 83 | 1013.1 |
| 20260508104530 | 12 | 172 | 0.0 | 3.2 | 0.00 | 0.00 | 0.00 | 83 | 1013.1 |
| 20260508103033 | 12 | 173 | 0.0 | 3.2 | 0.00 | 0.00 | 0.00 | 82 | 1013.1 |
| 20260508101524 | 12 | 173 | 0.0 | 3.2 | 0.00 | 0.00 | 0.00 | 81 | 1013.0 |
| 20260508100022 | 12 | 173 | 0.0 | 3.2 | 0.00 | 0.00 | 0.00 | 81 | 1012.8 |
| 20260508094523 | 12 | 172 | 0.0 | 3.2 | 0.00 | 0.00 | 0.00 | 80 | 1012.6 |
| 20260508093033 | 13 | 173 | 1.6 | 4.8 | 0.00 | 0.00 | 0.00 | 80 | 1012.7 |
| 20260508091528 | 13 | 172 | 1.6 | 4.8 | 0.00 | 0.00 | 0.00 | 79 | 1012.7 |
| 20260508090016 | 13 | 172 | 1.6 | 6.4 | 0.00 | 0.00 | 0.00 | 79 | 1012.7 |
| 20260508084514 | 13 | 168 | 1.6 | 4.8 | 0.00 | 0.00 | 0.00 | 78 | 1012.8 |
| 20260508083012 | 13 | 168 | 1.6 | 3.2 | 0.00 | 0.00 | 0.00 | 77 | 1012.9 |
| 20260508081512 | 13 | 168 | 0.0 | 4.8 | 0.00 | 0.00 | 0.00 | 75 | 1013.0 |
| 20260508080009 | 13 | 169 | 0.0 | 3.2 | 0.00 | 0.00 | 0.00 | 75 | 1013.2 |
| 20260508074511 | 14 | 168 | 1.6 | 4.8 | 0.00 | 0.00 | 0.00 | 74 | 1013.2 |
| 20260508073005 | 14 | 171 | 1.6 | 6.4 | 0.00 | 0.00 | 0.00 | 73 | 1013.3 |
| 20260508071507 | 14 | 166 | 3.2 | 8.0 | 0.00 | 0.00 | 0.00 | 72 | 1013.7 |
| 20260508070100 | 15 | 162 | 3.2 | 8.0 | 0.00 | 0.00 | 0.00 | 71 | 1013.8 |
| 20260508064558 | 15 | 172 | 1.6 | 8.0 | 0.00 | 0.00 | 0.00 | 71 | 1014.0 |
| 20260508063104 | 15 | 174 | 1.6 | 6.4 | 0.00 | 0.00 | 0.00 | 69 | 1014.2 |
| 20260508061553 | 15 | 360 | 3.2 | 6.4 | 0.00 | 0.00 | 0.00 | 68 | 1014.2 |
| 20260508060050 | 15 | 360 | 3.2 | 12.9 | 0.00 | 0.00 | 0.00 | 67 | 1014.3 |
| 20260508054551 | 16 | 360 | 4.8 | 9.7 | 0.00 | 0.00 | 0.00 | 65 | 1014.2 |
| 20260508053048 | 16 | 178 | 6.4 | 9.7 | 0.00 | 0.00 | 0.00 | 62 | 1014.2 |
| 20260508051543 | 16 | 171 | 6.4 | 11.3 | 0.00 | 0.00 | 0.00 | 60 | 1014.4 |
| 20260508050042 | 16 | 178 | 4.8 | 12.9 | 0.00 | 0.00 | 0.00 | 58 | 1014.4 |
| 20260508044540 | 17 | 163 | 4.8 | 11.3 | 0.00 | 0.00 | 0.00 | 58 | 1014.5 |
| 20260508043053 | 17 | 167 | 4.8 | 9.7 | 0.00 | 0.00 | 0.00 | 56 | 1014.5 |
| 20260508041548 | 17 | 158 | 3.2 | 11.3 | 0.00 | 0.00 | 0.00 | 56 | 1014.5 |
| 20260508040040 | 17 | 161 | 3.2 | 8.0 | 0.00 | 0.00 | 0.00 | 56 | 1014.6 |
| 20260508034538 | 17 | 161 | 3.2 | 8.0 | 0.00 | 0.00 | 0.00 | 55 | 1014.6 |
| 20260508033038 | 17 | 161 | 3.2 | 8.0 | 0.00 | 0.00 | 0.00 | 54 | 1014.5 |
| 20260508031537 | 18 | 161 | 1.6 | 8.0 | 0.00 | 0.00 | 0.00 | 53 | 1014.6 |
| 20260508030041 | 18 | 159 | 3.2 | 9.7 | 0.00 | 0.00 | 0.00 | 52 | 1014.5 |
| 20260508024540 | 18 | 159 | 3.2 | 9.7 | 0.00 | 0.00 | 0.00 | 51 | 1014.5 |
| 20260508023035 | 19 | 164 | 1.6 | 9.7 | 0.00 | 0.00 | 0.00 | 50 | 1014.4 |
| 20260508021540 | 19 | 159 | 1.6 | 8.0 | 0.00 | 0.00 | 0.00 | 49 | 1014.3 |
| 20260508020044 | 20 | 163 | 1.6 | 4.8 | 0.00 | 0.00 | 0.00 | 47 | 1014.1 |
| 20260508014534 | 20 | 163 | 1.6 | 4.8 | 0.00 | 0.00 | 0.00 | 45 | 1014.1 |
| 20260508013039 | 21 | 163 | 1.6 | 4.8 | 0.00 | 0.00 | 0.00 | 43 | 1013.8 |
| 20260508011533 | 21 | 360 | 3.2 | 6.4 | 0.00 | 0.00 | 0.00 | 39 | 1014.0 |
| 20260508010035 | 22 | 360 | 0.0 | 4.8 | 0.00 | 0.00 | 0.00 | 38 | 1014.0 |
| 20260508004533 | 22 | 360 | 3.2 | 6.4 | 0.00 | 0.00 | 0.00 | 36 | 1014.0 |
| 20260508003031 | 22 | 360 | 1.6 | 6.4 | 0.00 | 0.00 | 0.00 | 37 | 1013.9 |
| 20260508001556 | 22 | 360 | 1.6 | 3.2 | 0.00 | 0.00 | 0.00 | 36 | 1013.7 |
| 20260508000029 | 22 | 360 | 1.6 | 6.4 | 0.00 | 0.00 | 0.00 | 36 | 1013.6 |
| 20260507234533 | 23 | 360 | 1.6 | 4.8 | 0.00 | 0.00 | 0.00 | 37 | 1013.6 |
| 20260507233026 | 23 | 360 | 0.0 | 3.2 | 0.00 | 0.00 | 0.00 | 36 | 1014.0 |
| 20260507231533 | 23 | 360 | 0.0 | 3.2 | 0.00 | 0.00 | 0.00 | 37 | 1014.0 |
| 20260507230026 | 23 | 360 | 1.6 | 4.8 | 0.00 | 0.00 | 0.00 | 35 | 1014.1 |
| 20260507224531 | 23 | 360 | 1.6 | 4.8 | 0.00 | 0.00 | 0.00 | 36 | 1014.5 |
| 20260507223018 | 22 | 360 | 1.6 | 4.8 | 0.00 | 0.00 | 0.00 | 35 | 1014.5 |
| 20260507221516 | 22 | 360 | 1.6 | 4.8 | 0.00 | 0.00 | 0.00 | 38 | 1014.6 |
| 20260507220030 | 22 | 360 | 1.6 | 3.2 | 0.00 | 0.00 | 0.00 | 38 | 1014.7 |
| 20260507214515 | 22 | 360 | 1.6 | 4.8 | 0.00 | 0.00 | 0.00 | 38 | 1014.7 |
| 20260507213013 | 22 | 360 | 0.0 | 4.8 | 0.00 | 0.00 | 0.00 | 39 | 1014.7 |